Location: Rodanthe
(35.5920°N, 75.4670°W)
Time: 03:35:40
(UTC-04:00)

Daily predictions for brighter satellites

Satellite Brightness Start Highest point End
(mag) Time Altitude Azimuth Time Altitude Azimuth Time Altitude Azimuth
Cosmos 2219 Rocket 4.2 00:14:24 23° NNW 00:14:24 23° NNW 00:17:14 10° N
Cosmos 2333 Rocket 4.4 00:32:48 21° NNW 00:32:48 21° NNW 00:35:19 10° N
CENTAUR R/B 3.8 00:59:15 10° NNW 01:04:37 48° NNW 01:04:37 48° NNW
USA 215 4.5 01:13:10 36° N 01:13:10 36° N 01:17:17 10° NNW
SL-16 R/B 3.9 02:30:31 32° ENE 02:30:54 32° ENE 02:36:18 10° N
Cosmos 1943 Rocket 4.0 02:28:45 10° NNW 02:31:11 26° N 02:31:11 26° N
Resurs 1-4 Rocket 3.9 02:35:33 10° NE 02:38:22 25° ENE 02:38:22 25° ENE
Cosmos 2369 Rocket 4.4 02:40:22 10° NNW 02:41:41 18° NNW 02:41:41 18° NNW
CZ-3A R/B 3.9 02:39:47 10° NW 02:48:37 53° NE 02:53:51 10° ESE
CZ-2D R/B 3.6 02:45:36 10° NNE 02:48:56 32° ENE 02:48:56 32° ENE
ARIANE 5 R/B 3.5 03:08:22 10° NNE 03:12:11 44° NE 03:12:11 44° NE
ADEOS Rocket 4.0 03:18:29 10° N 03:21:44 31° NNW 03:21:44 31° NNW
IRS-1D 4.1 03:32:41 10° N 03:36:35 51° N 03:36:35 51° N
Cosmos 2221 4.1 03:41:00 29° N 03:41:00 29° N 03:43:12 10° N
ADEOS 3.7 03:40:45 10° N 03:45:16 66° N 03:45:16 66° N
COSMOS 2406 3.2 03:47:05 73° NNW 03:47:05 73° NNW 03:52:24 10° NNE
Cosmos 2285 Rocket 3.8 03:46:51 77° S 03:47:23 87° ESE 03:53:48 10° NNE
Cosmos 372 Rocket 4.4 03:47:05 10° NNW 03:51:00 52° NNW 03:51:00 52° NNW
Okean O Rocket 4.3 03:57:39 10° NE 04:00:18 16° E 04:02:55 10° SE
MOS 1 Rocket 4.4 04:04:39 10° N 04:07:19 30° NW 04:07:19 30° NW
Meteor 2-17 Rocket 4.5 04:08:09 39° S 04:10:32 77° E 04:16:39 10° N
Cosmos 1300 3.2 04:12:33 56° NNE 04:12:33 56° NNE 04:15:38 10° N
SL-16 R/B 3.3 04:15:37 33° WNW 04:15:37 33° WNW 04:20:01 10° NNW
Sich 1 2.9 04:13:31 10° N 04:17:46 80° NW 04:17:46 80° NW
Resurs 1-4 Rocket 3.3 04:15:34 10° NNW 04:19:26 26° WNW 04:19:26 26° WNW
CZ-2D R/B 4.0 04:18:12 10° N 04:21:16 43° NW 04:21:16 43° NW
Cosmos 1455 4.5 04:25:38 10° SE 04:28:36 22° E 04:31:34 10° NE
Cosmos 1459 Rocket 3.9 04:25:34 28° S 04:28:58 87° E 04:35:04 10° N
Cosmos 1315 Rocket 3.0 04:25:08 10° NNW 04:28:33 56° NW 04:28:33 56° NW
CZ-2D R/B 3.5 04:26:20 10° NNW 04:30:15 22° WNW 04:30:15 22° WNW
Cosmos 1538 Rocket 4.0 04:30:39 47° SW 04:32:10 72° WNW 04:37:32 10° NNE
Cosmos 2228 Rocket 3.0 04:31:13 46° S 04:32:32 87° E 04:37:01 10° N
Cosmos 1470 Rocket 4.1 04:29:41 10° N 04:33:56 56° E 04:38:10 10° SSE
Cosmos 2082 Rocket 3.1 04:34:30 14° S 04:38:58 44° ESE 04:44:16 10° NE
USA 229 DEB 3.8 04:31:58 10° NW 04:39:01 58° WSW 04:46:10 10° SSE
USA 229 3.8 04:32:04 10° NW 04:39:07 59° WSW 04:46:16 10° SSE
Cosmos 1515 Rocket 3.5 04:37:53 36° S 04:39:39 85° E 04:44:04 10° N
Cosmos 923 Rocket 4.5 04:37:29 20° S 04:41:00 58° ESE 04:46:08 10° NNE
Cosmos 1633 Rocket 3.3 04:42:06 10° NNW 04:46:17 46° W 04:46:49 43° WSW
Tiangong 2 1.3 04:46:42 56° SSE 04:46:49 57° SSE 04:49:59 10° ENE
Meteor 2-3 Rocket 4.5 04:42:08 10° N 04:47:40 55° E 04:53:14 10° SSE
Cosmos 2061 Rocket 4.0 04:43:46 21° SSW 04:48:18 74° W 04:54:45 10° N
PSLV R/B 3.9 04:44:43 10° NNE 04:48:53 81° ESE 04:51:13 25° S
ARIANE 5 R/B 4.3 04:49:01 10° NNW 04:52:06 16° WNW 04:52:31 16° WNW
Lacrosse 5 4.0 04:48:05 10° NNW 04:52:25 27° NE 04:56:44 10° E
CZ-4B R/B 3.1 04:53:27 10° NNE 04:57:58 90° ESE 05:01:30 17° SSW
CZ-4B R/B 3.6 04:53:46 10° NNE 04:59:11 61° ESE 05:04:28 10° S
Cosmos 1680 Rocket 3.8 04:55:18 12° S 05:00:06 68° ESE 05:05:23 10° NNE
Cosmos 1726 4.3 05:03:54 13° WNW 05:03:54 13° WNW 05:04:55 10° NW
Cosmos 1328 Rocket 4.4 05:05:17 27° WSW 05:06:18 30° WNW 05:10:09 10° NNW
PAYLOAD B 4.3 05:00:59 10° NNE 05:06:37 83° ESE 05:12:11 10° SSW
Cosmos 2112 Rocket 4.4 05:01:23 10° S 05:06:38 66° ESE 05:11:55 10° NNE
Cosmos 2016 Rocket 3.9 05:02:54 13° SSW 05:08:24 63° W 05:14:27 10° N
Cosmos 2369 3.9 05:03:30 10° NNW 05:09:09 73° ENE 05:14:47 10° SSE
Meteor 1-27 4.2 05:04:27 12° SSW 05:09:47 71° W 05:15:24 10° N
ADEOS II 2.3 05:05:45 10° N 05:10:51 53° WNW 05:14:51 16° SW
Landsat 4 4.4 05:07:19 10° SSE 05:10:58 56° ENE 05:14:39 10° N
USA 234 3.7 05:05:26 10° NE 05:11:52 57° SE 05:18:16 10° SSW
Cosmos 1892 2.6 05:08:20 10° N 05:12:11 83° W 05:16:01 10° S
NOSS 3-1 (C) 4.1 05:06:15 10° NW 05:14:02 72° WSW 05:22:30 10° SSE
Hubble Space Telescope 1.9 05:12:56 22° SW 05:14:37 29° S 05:18:13 10° ESE
OAO 2 Rocket 4.1 05:11:56 19° SW 05:14:55 39° SSE 05:19:33 10° E
Cosmos 1864 Rocket 4.5 05:09:30 10° S 05:15:49 81° W 05:22:04 10° N
Shenzhou-11 Module 2.4 05:14:51 27° W 05:16:15 52° NNW 05:19:17 10° NE
Cosmos 2084 4.4 05:12:37 10° S 05:16:32 41° ESE 05:20:15 10° NE
PSLV R/B 3.7 05:14:31 10° N 05:18:47 56° WNW 05:22:30 13° SSW
BREEZE-M DEB (TANK) 2.6 05:20:13 25° WSW 05:20:55 29° SW 05:24:24 10° SSE
Cosmos 1725 Rocket 3.9 05:14:51 10° SSW 05:21:01 73° W 05:27:12 10° N
Cosmos 1802 Rocket 4.5 05:17:49 15° SW 05:22:33 40° WNW 05:28:24 10° N
Cosmos 1656 4.0 05:18:05 10° NNW 05:23:48 74° ENE 05:29:28 10° SSE
Cosmos 1825 4.2 05:24:03 10° NNE 05:27:30 33° E 05:30:57 10° SE
Cosmos 1933 Rocket 4.1 05:23:58 10° NNW 05:28:04 36° W 05:32:07 10° SSW
COSMOS 2487 2.9 05:28:41 16° SW 05:31:13 41° WNW 05:34:36 10° N
Okean-O 4.0 05:29:00 10° NNE 05:33:11 40° E 05:37:21 10° S
Abrixas 2.6 05:30:49 10° NW 05:33:25 61° NE 05:36:00 10° ESE
Lacrosse 4 Rocket 4.4 05:34:27 10° SE 05:36:40 14° ESE 05:38:54 10° ENE
Okean O Rocket 2.2 05:32:41 10° N 05:36:47 39° WNW 05:40:52 10° SW
Cosmos 1833 Rocket 2.9 05:32:31 10° SW 05:38:03 56° WNW 05:43:37 10° NNE
Meteor 2-12 Rocket 4.4 05:32:20 10° S 05:38:22 87° W 05:44:28 10° N
Cosmos 1151 Rocket 4.3 05:38:21 12° WSW 05:41:12 22° WNW 05:44:34 10° NNW
Cosmos 1408 3.2 05:40:21 10° N 05:43:55 59° E 05:47:28 10° SSE
Cosmos 1707 Rocket 3.6 05:39:30 10° S 05:43:56 88° ESE 05:48:21 10° N
Tsikada Rocket 4.1 05:39:15 10° NNW 05:45:28 61° W 05:51:44 10° S
Cosmos 1900 4.5 05:41:56 10° SSW 05:46:57 83° ESE 05:52:05 10° NNE
ATLAS 5 CENTAUR R/B 4.4 05:48:31 10° SE 05:51:05 15° ESE 05:53:42 10° ENE
Cosmos 1980 Rocket 3.2 05:49:53 10° NNW 05:55:22 53° ENE 06:00:50 10° SE
Cosmos 2278 4.1 05:53:35 10° NW 05:58:49 41° WSW 06:04:04 10° S
EO 1 Del DPAF 3.2 05:56:33 10° S 06:00:22 76° WSW 06:04:14 10° NNW
ASTEX 1 3.9 05:57:03 10° NNE 06:01:56 68° E 06:06:47 10° S
